Location: Sternwarte auf dem Internationalen Platz Vogelsang IP
(50.5721°N, 6.4398°E)
Time: 06:02:39
(UTC+01:00)

Transit 2A Rocket - Pass Details

Date: 19 December 2025
Orbit: 581 x 903 km, 66.7° (Epoch: 13 January)

Event Time Altitude Azimuth Distance (km) Brightness Sun altitude
Rises 12:13:28 0° 305° (NW) 3,506 8.0 15.9°
Reaches altitude 10° 12:16:56 10° 325° (NW) 2,586 7.3 15.9°
Maximum altitude 12:20:50 17° 5° (N) 2,112 6.8 16.0°
Drops below altitude 10° 12:24:43 10° 46° (NE) 2,576 7.4 16.0°
Sets 12:28:10 0° 65° (ENE) 3,488 8.2 16.0°
